FREGAT DEB, 46524

Orbit data source: Space-Track

FREGAT DEB, 46524 is space debris in LEO originally from a launch on Mon, 18 Jul 2011 UTC launched from the Tyuratam Missile And Space Complex (TTMTR). Debris objects in space refer to the collection of defunct objects orbiting the Earth. Examples of debris include non-operational satellites, rocket bodies, and fragments generated from explosions, collisions, or faulty payload assembly.

Loading next visibility...
Identifier
46524, 2011-037MC
Orbit
LEO
Country
Flag of CISCIS
Related business
Manufacturer
Lavochkin
Mission
Spacecraft
Bus & Motor
Unknown
Mass
Unknown
Launch date (UTC)
2011-07-18 (15 years ago)
Launch vehicle
Unknown
Launch site
Tyuratam Missile And Space Complex (TTMTR)
Object type
Payload
Rocket body
Debris
Shape & HBR
Unknown shape, 0.1 m
Radar Cross Section
Medium (>0.1 m² and <1 m²)

Expand to show TLE details & history
Last TLE update: 2 days ago

TLE from 2 days ago
0 FREGAT DEB
1 46524U 11037MC  26171.29376397 -.00000716  00000-0 -17328-2 0  9995
2 46524  51.6167 261.8950 1818203   5.4203 356.3645 10.61178568225595
Epoch: 2026-06-20T07:03Z
TLE epoch observation values (Epoch: 2026-06-20T07:03:01.207Z)
Latitude
-0.00008°
Longitude
-112.37055°
Altitude
784.141 km
Speed
8.11 km/s
True Right ascension
17h 27m 34s
True Declination
0° 00' 00"
Sunlit
Object was in full shadow at epoch
Visualization orbit readout
Latitude
Unknown
Longitude
Unknown
Altitude
Unknown
Speed
Unknown
Apparent Right ascension
Unknown
Apparent Declination
Unknown
Sunlit
N/A
Visualization observer readout
Local Sidereal Time
21:47:25
Azimuth
Unknown
Elevation
Unknown
Doppler factor
Unknown
Orbital elements
Apogee altitude
3,960.148 km
Perigee altitude
779.106 km
Semi-major axis
8,747.764 km
Eccentricity
0.18182
Inclination
51.6167°
RAAN
261.895°
Arg. of periapsis
5.4203°
True anomaly
354.66206°
Mean anomaly
356.3645°
Eccentric anomaly
355.55759°
Mean motion
2.65276 °/min
Orbital period
135.71 mins
BSTAR
-0.0017328
Loading maneuver chart data...
Computing Atmospheric mass density...
Loading historical data...
Loading historical data...
Loading historical data...
Loading historical data...
Loading historical data...
Loading historical data...
Loading historical data...

Documentation

Showing up to 5 results
|